Regional Weather Roundup
Issued by NWS

Home | Current Version | Previous Version | Graphics & Text | Print | Product List | Glossary Off
Versions: 1 2 3 4 5 6 7 8 9 10 11 12 13 14 15 16 17 18 19 20 21 22 23 24 25 26 27 28 29 30 31 32 33 34 35 36 37 38 39 40 41 42 43 44 45 46 47 48 49 50

000
ASUS43 KTOP 180108
RWRKS

WEATHER ROUNDUP FOR KANSAS
NATIONAL WEATHER SERVICE GOODLAND KS
800 PM CDT FRI APR 17 2015

NOTE:  "FAIR" INDICATES FEW OR NO CLOUDS BELOW 12,000 FEET WITH NO
SIGNIFICANT WEATHER AND/OR OBSTRUCTIONS TO VISIBILITY.

KSZ001>006-013>018-027>032-041>047-180200-
NORTHWEST KANSAS

CITY           SKY/WX    TMP DP  RH WIND       PRES   REMARKS
GOODLAND       MOCLDY    55  45  68 NE8       29.93F
HAYS           MOCLDY    66  50  55 E8        29.93S
HILL CITY      CLOUDY    66  51  58 S6        29.94R
RUSSELL        MOCLDY    67  55  65 SE8       29.91F
$$

KSZ061>065-074>080-084>089-180200-
SOUTHWEST KANSAS

CITY           SKY/WX    TMP DP  RH WIND       PRES   REMARKS
DODGE CITY     MOCLDY    62  56  80 E9        29.92R
ELKHART          N/A    N/A N/A N/A MISG        N/A
GARDEN CITY    LGT RAIN  61  51  70 SE23      29.89R
GREAT BEND     CLOUDY    66  55  68 S12       29.93R
LIBERAL        PTCLDY    66  48  52 SE17G24   29.89F
PRATT          CLOUDY    64  55  72 SE7       29.94S
$$

KSZ066>073-081>083-090>101-180200-
SOUTHEAST KANSAS

CITY           SKY/WX    TMP DP  RH WIND       PRES   REMARKS
CHANUTE        MOCLDY    70  61  73 CALM      29.94F
COFFEYVILLE    CLOUDY    71  61  70 W3        29.93R
HUTCHINSON     MOCLDY    68  56  65 S9        29.93S
MEDICINE LODGE   N/A     66  58  75 S7        29.91S
NEWTON         CLOUDY    64  55  72 S6        29.96S
PARSONS        CLOUDY    69  64  84 CALM      29.95R
WICHITA INTL   CLOUDY    68  57  68 CALM      29.92F
WICHITA JABRA  CLOUDY    68  57  68 SW3       29.93F
WICHITA MCCONL CLOUDY    68  56  66 CALM      29.93F
WINFIELD       CLOUDY    65  61  87 MISG      29.94S
$$

KSZ007>012-019>026-033>040-048>060-102>105-180200-
NORTHEAST KANSAS

CITY           SKY/WX    TMP DP  RH WIND       PRES   REMARKS
CONCORDIA      MOCLDY    69  56  62 E7        29.94S
EMPORIA        CLOUDY    67  58  72 E7        29.94F
LAWRENCE       MOCLDY    67  61  81 E3        29.96S
MANHATTAN      CLOUDY    70  58  65 SE6       29.93F
MARYSVILLE     CLOUDY    64  59  82 E7        29.96F
OLATHE IND     MOCLDY    68  58  70 S3        29.97S
OLATHE EXE     PTCLDY    69  59  70 CALM      29.96S
SALINA         MOCLDY    70  57  63 SE8       29.93F
TOPEKA BILLARD CLOUDY    68  58  70 SE6       29.96S
TOPEKA FORBES  CLOUDY    70  57  63 SE5       29.96S
$$


USA.gov is the U.S. government's official web portal to all federal, state and local government web resources and services.